DAL3894 KABQ-KLAX

Flight info

Callsign DAL3894
Flight time 1h 48m
Altitude 38000
Route RDRNR3 ZUN J6 DRK HIPPI GABBL HLYWD1
Aircraft B738/M-SDE2E3FGHIRWXY/LB1

Departure

Time 2026-05-04 02:20
Airport Albuquerque International Sunport (KABQ)

Arrival

Time 2026-05-04 04:08
Airport Los Angeles International Airport (KLAX)
Time Latitude Longitude Altitude Speed Heading
2026-05-04 01:35 35.04784 -106.61437 5464 ft 0 kts 206°
2026-05-04 02:08 35.04786 -106.61436 5465 ft 3 kts 206°
2026-05-04 02:08 35.04809 -106.61422 5471 ft 4 kts 200°
2026-05-04 02:09 35.04832 -106.61416 5468 ft 4 kts 147°
2026-05-04 02:09 35.04836 -106.61420 5468 ft 1 kts 91°
2026-05-04 02:13 35.04836 -106.61407 5466 ft 3 kts 91°
2026-05-04 02:13 35.04836 -106.61383 5466 ft 3 kts 91°
2026-05-04 02:14 35.04836 -106.61378 5465 ft 0 kts 91°
2026-05-04 02:14 35.04835 -106.61374 5465 ft 2 kts 91°
2026-05-04 02:14 35.04833 -106.61333 5468 ft 7 kts 101°
2026-05-04 02:15 35.04796 -106.61309 5471 ft 7 kts 180°
2026-05-04 02:15 35.04747 -106.61308 5470 ft 7 kts 180°
2026-05-04 02:15 35.04698 -106.61309 5468 ft 7 kts 181°
2026-05-04 02:15 35.04645 -106.61314 5469 ft 8 kts 187°
2026-05-04 02:16 35.04594 -106.61337 5467 ft 8 kts 209°
2026-05-04 02:16 35.04555 -106.61407 5454 ft 13 kts 266°
2026-05-04 02:16 35.04558 -106.61542 5462 ft 17 kts 270°
2026-05-04 02:16 35.04558 -106.61691 5463 ft 17 kts 269°
2026-05-04 02:17 35.04558 -106.61841 5464 ft 19 kts 270°
2026-05-04 02:17 35.04558 -106.62015 5460 ft 21 kts 271°
2026-05-04 02:17 35.04553 -106.62115 5457 ft 8 kts 247°
2026-05-04 02:17 35.04524 -106.62137 5454 ft 0 kts 184°
2026-05-04 02:18 35.04521 -106.62137 5456 ft 2 kts 184°
2026-05-04 02:18 35.04489 -106.62140 5456 ft 7 kts 182°
2026-05-04 02:19 35.04439 -106.62098 5459 ft 13 kts 105°
2026-05-04 02:19 35.04433 -106.61852 5461 ft 57 kts 91°
2026-05-04 02:19 35.04429 -106.61083 5469 ft 121 kts 90°
2026-05-04 02:19 35.04423 -106.59838 5483 ft 171 kts 92°
2026-05-04 02:20 35.04409 -106.58303 5958 ft 185 kts 94°
2026-05-04 02:20 35.04422 -106.56706 6433 ft 195 kts 93°
2026-05-04 02:20 35.04479 -106.55015 6745 ft 205 kts 92°
2026-05-04 02:20 35.04732 -106.53243 7159 ft 220 kts 70°
2026-05-04 02:21 35.05699 -106.51766 7606 ft 230 kts 33°
2026-05-04 02:21 35.07192 -106.51161 8137 ft 225 kts 356°
2026-05-04 02:21 35.08642 -106.51666 8659 ft 217 kts 317°
2026-05-04 02:21 35.09437 -106.53121 9217 ft 203 kts 277°
2026-05-04 02:22 35.09501 -106.54768 9983 ft 191 kts 267°
2026-05-04 02:22 35.09508 -106.56460 10239 ft 210 kts 268°
2026-05-04 02:22 35.09582 -106.58361 10315 ft 238 kts 275°
2026-05-04 02:22 35.10104 -106.60404 10444 ft 270 kts 299°
2026-05-04 02:23 35.11219 -106.62378 10686 ft 292 kts 295°
2026-05-04 02:23 35.11883 -106.64742 11225 ft 298 kts 277°
2026-05-04 02:23 35.11885 -106.67251 12127 ft 293 kts 264°
2026-05-04 02:23 35.11679 -106.69679 13324 ft 284 kts 266°
2026-05-04 02:24 35.11596 -106.72146 13803 ft 302 kts 269°
2026-05-04 02:24 35.11562 -106.74817 13978 ft 326 kts 269°
2026-05-04 02:24 35.11523 -106.77696 14151 ft 349 kts 269°
2026-05-04 02:24 35.11461 -106.80749 14289 ft 370 kts 268°
2026-05-04 02:25 35.11379 -106.83968 14451 ft 387 kts 268°
2026-05-04 02:25 35.11288 -106.87255 14849 ft 396 kts 268°
2026-05-04 02:25 35.11075 -106.90610 15250 ft 398 kts 261°
2026-05-04 02:25 35.10463 -106.93909 15960 ft 398 kts 256°
2026-05-04 02:26 35.09770 -106.97189 16640 ft 399 kts 256°
2026-05-04 02:26 35.09080 -107.00471 17237 ft 401 kts 257°
2026-05-04 02:26 35.08395 -107.03784 17828 ft 403 kts 257°
2026-05-04 02:26 35.07717 -107.07115 18375 ft 405 kts 257°
2026-05-04 02:27 35.07040 -107.10463 18869 ft 407 kts 257°
2026-05-04 02:27 35.06363 -107.13824 19364 ft 409 kts 257°
2026-05-04 02:27 35.05681 -107.17208 19873 ft 411 kts 257°
2026-05-04 02:27 35.04996 -107.20602 20384 ft 412 kts 257°
2026-05-04 02:28 35.04533 -107.22886 20712 ft 413 kts 257°
2026-05-04 02:28 35.03724 -107.27445 21324 ft 416 kts 263°
2026-05-04 02:28 35.03576 -107.29769 21614 ft 416 kts 268°
2026-05-04 02:28 35.03464 -107.34507 22246 ft 419 kts 268°
2026-05-04 02:29 35.03405 -107.36863 22540 ft 419 kts 268°
2026-05-04 02:29 35.03310 -107.40430 22962 ft 421 kts 268°
2026-05-04 02:29 35.03208 -107.44008 23343 ft 423 kts 268°
2026-05-04 02:29 35.03100 -107.47615 23700 ft 425 kts 268°
2026-05-04 02:30 35.02987 -107.51222 24025 ft 426 kts 268°
2026-05-04 02:30 35.02870 -107.54844 24101 ft 429 kts 268°
2026-05-04 02:30 35.02752 -107.58478 24104 ft 426 kts 268°
2026-05-04 02:30 35.02633 -107.62083 24123 ft 425 kts 268°
2026-05-04 02:31 35.02513 -107.65684 24128 ft 426 kts 268°
2026-05-04 02:31 35.02392 -107.69309 24136 ft 428 kts 268°
2026-05-04 02:31 35.02269 -107.72961 24406 ft 430 kts 268°
2026-05-04 02:31 35.02146 -107.76560 24810 ft 429 kts 268°
2026-05-04 02:32 35.02021 -107.80181 25202 ft 428 kts 268°
2026-05-04 02:32 35.01896 -107.83810 25544 ft 428 kts 268°
2026-05-04 02:32 35.01769 -107.87447 25834 ft 430 kts 268°
2026-05-04 02:32 35.01640 -107.91101 26116 ft 431 kts 268°
2026-05-04 02:33 35.01510 -107.94748 26364 ft 432 kts 268°
2026-05-04 02:33 35.01379 -107.98408 26619 ft 432 kts 268°
2026-05-04 02:33 35.01247 -108.02066 26947 ft 430 kts 268°
2026-05-04 02:33 35.01114 -108.05702 27346 ft 427 kts 268°
2026-05-04 02:34 35.00981 -108.09303 27749 ft 423 kts 268°
2026-05-04 02:34 35.00849 -108.12881 28139 ft 421 kts 268°
2026-05-04 02:34 35.00716 -108.16438 28493 ft 420 kts 268°
2026-05-04 02:34 35.00582 -108.19989 28880 ft 418 kts 268°
2026-05-04 02:35 35.00448 -108.23515 29308 ft 415 kts 269°
2026-05-04 02:35 35.00314 -108.27018 29759 ft 412 kts 269°
2026-05-04 02:35 35.00180 -108.30504 30160 ft 410 kts 269°
2026-05-04 02:35 35.00048 -108.33916 30503 ft 408 kts 269°
2026-05-04 02:36 34.99913 -108.37372 30834 ft 407 kts 269°
2026-05-04 02:36 34.99777 -108.40818 31164 ft 406 kts 269°
2026-05-04 02:36 34.99641 -108.44249 31479 ft 404 kts 268°
2026-05-04 02:36 34.99505 -108.47672 31774 ft 404 kts 268°
2026-05-04 02:37 34.99367 -108.51093 32105 ft 402 kts 268°
2026-05-04 02:37 34.99230 -108.54489 32464 ft 400 kts 269°
2026-05-04 02:37 34.99092 -108.57864 32821 ft 398 kts 268°
2026-05-04 02:37 34.98954 -108.61232 33149 ft 396 kts 268°
2026-05-04 02:38 34.98816 -108.64579 33457 ft 395 kts 269°
2026-05-04 02:38 34.98676 -108.67927 33792 ft 394 kts 269°
2026-05-04 02:38 34.98537 -108.71262 34093 ft 392 kts 269°
2026-05-04 02:38 34.98397 -108.74565 34398 ft 390 kts 268°
2026-05-04 02:39 34.98259 -108.77817 34713 ft 387 kts 268°
2026-05-04 02:39 34.98120 -108.81055 35682 ft 367 kts 268°
2026-05-04 02:39 34.97990 -108.84041 36691 ft 348 kts 269°
2026-05-04 02:39 34.97865 -108.86922 37476 ft 333 kts 269°
2026-05-04 02:40 34.97745 -108.89671 37828 ft 318 kts 269°
2026-05-04 02:40 34.97629 -108.92329 37838 ft 310 kts 268°
2026-05-04 02:40 34.97323 -108.97640 37899 ft 320 kts 268°
2026-05-04 02:41 34.96975 -109.03164 37885 ft 332 kts 268°
2026-05-04 02:41 34.96617 -109.08882 37924 ft 344 kts 267°
2026-05-04 02:42 34.96249 -109.14766 37871 ft 356 kts 267°
2026-05-04 02:42 34.95866 -109.20875 37873 ft 366 kts 267°
2026-05-04 02:43 34.95471 -109.27136 37856 ft 373 kts 267°
2026-05-04 02:43 34.95069 -109.33462 37862 ft 375 kts 267°
2026-05-04 02:44 34.94663 -109.39793 37836 ft 373 kts 267°
2026-05-04 02:44 34.94260 -109.46031 37821 ft 367 kts 267°
2026-05-04 02:45 34.93859 -109.52187 37837 ft 362 kts 267°
2026-05-04 02:45 34.93460 -109.58276 37834 ft 359 kts 267°
2026-05-04 02:46 34.93061 -109.64328 37838 ft 358 kts 267°
2026-05-04 02:46 34.92660 -109.70364 37836 ft 357 kts 267°
2026-05-04 02:47 34.92257 -109.76373 37835 ft 358 kts 266°
2026-05-04 02:47 34.91848 -109.82430 37843 ft 358 kts 266°
2026-05-04 02:48 34.91437 -109.88469 37828 ft 357 kts 266°
2026-05-04 02:48 34.91024 -109.94499 37832 ft 356 kts 266°
2026-05-04 02:49 34.90609 -110.00507 37830 ft 356 kts 266°
2026-05-04 02:49 34.90192 -110.06504 37830 ft 355 kts 266°
2026-05-04 02:50 34.89776 -110.12456 37831 ft 355 kts 266°
2026-05-04 02:50 34.89352 -110.18462 37833 ft 352 kts 266°
2026-05-04 02:51 34.88936 -110.24328 37830 ft 348 kts 266°
2026-05-04 02:51 34.88517 -110.30183 37831 ft 346 kts 266°
2026-05-04 02:52 34.88099 -110.35998 37842 ft 344 kts 266°
2026-05-04 02:52 34.87679 -110.41801 37842 ft 343 kts 266°
2026-05-04 02:53 34.87257 -110.47592 37813 ft 343 kts 266°
2026-05-04 02:53 34.86830 -110.53356 37835 ft 341 kts 266°
2026-05-04 02:54 34.86387 -110.59089 37839 ft 339 kts 266°
2026-05-04 02:54 34.85944 -110.64772 37940 ft 339 kts 266°
2026-05-04 02:55 34.85274 -110.73335 37942 ft 339 kts 266°
2026-05-04 02:56 34.84824 -110.79049 37937 ft 339 kts 266°
2026-05-04 02:56 34.84373 -110.84744 37918 ft 337 kts 266°
2026-05-04 02:57 34.83920 -110.90420 37908 ft 335 kts 266°
2026-05-04 02:57 34.83468 -110.96065 37902 ft 335 kts 266°
2026-05-04 02:58 34.83013 -111.01718 37897 ft 335 kts 266°
2026-05-04 02:58 34.82554 -111.07379 37886 ft 335 kts 266°
2026-05-04 02:59 34.82097 -111.12989 37873 ft 335 kts 266°
2026-05-04 02:59 34.81635 -111.18629 37893 ft 334 kts 265°
2026-05-04 03:00 34.81171 -111.24243 37883 ft 332 kts 265°
2026-05-04 03:00 34.80709 -111.29820 37889 ft 330 kts 265°
2026-05-04 03:01 34.80246 -111.35362 37883 ft 328 kts 265°
2026-05-04 03:01 34.79787 -111.40836 37900 ft 327 kts 265°
2026-05-04 03:02 34.79323 -111.46349 37882 ft 327 kts 265°
2026-05-04 03:02 34.78855 -111.51877 37907 ft 329 kts 265°
2026-05-04 03:03 34.78380 -111.57443 37966 ft 332 kts 265°
2026-05-04 03:03 34.77902 -111.63026 37980 ft 334 kts 265°
2026-05-04 03:04 34.77415 -111.68670 37986 ft 336 kts 265°
2026-05-04 03:04 34.76926 -111.74330 38019 ft 337 kts 265°
2026-05-04 03:05 34.76430 -111.80026 38035 ft 339 kts 265°
2026-05-04 03:05 34.75936 -111.85649 37986 ft 329 kts 265°
2026-05-04 03:06 34.75451 -111.91145 37973 ft 327 kts 265°
2026-05-04 03:06 34.74969 -111.96603 37956 ft 326 kts 265°
2026-05-04 03:07 34.74481 -112.02090 37929 ft 326 kts 265°
2026-05-04 03:07 34.73991 -112.07574 37901 ft 326 kts 265°
2026-05-04 03:08 34.73499 -112.13044 37905 ft 326 kts 265°
2026-05-04 03:08 34.73004 -112.18521 37950 ft 326 kts 264°
2026-05-04 03:09 34.72509 -112.23974 37964 ft 327 kts 264°
2026-05-04 03:09 34.72007 -112.29478 38003 ft 327 kts 264°
2026-05-04 03:10 34.71502 -112.34990 38015 ft 328 kts 264°
2026-05-04 03:10 34.70996 -112.40489 38021 ft 328 kts 264°
2026-05-04 03:11 34.70486 -112.45996 37995 ft 328 kts 264°
2026-05-04 03:11 34.69928 -112.51430 37836 ft 328 kts 263°
2026-05-04 03:12 34.69279 -112.56881 37841 ft 328 kts 263°
2026-05-04 03:12 34.68619 -112.62375 37822 ft 328 kts 263°
2026-05-04 03:13 34.67963 -112.67876 37825 ft 329 kts 263°
2026-05-04 03:13 34.67308 -112.73375 37818 ft 328 kts 263°
2026-05-04 03:14 34.66653 -112.78870 37813 ft 329 kts 263°
2026-05-04 03:14 34.65999 -112.84345 37830 ft 329 kts 263°
2026-05-04 03:15 34.65337 -112.89851 37785 ft 329 kts 262°
2026-05-04 03:15 34.64675 -112.95350 37789 ft 329 kts 262°
2026-05-04 03:16 34.64012 -113.00823 37803 ft 326 kts 262°
2026-05-04 03:16 34.63462 -113.05355 37790 ft 327 kts 262°
2026-05-04 03:17 34.62801 -113.10807 37792 ft 327 kts 262°
2026-05-04 03:17 34.62129 -113.16286 37780 ft 329 kts 262°
2026-05-04 03:18 34.61453 -113.21791 37781 ft 330 kts 262°
2026-05-04 03:18 34.60771 -113.27322 37761 ft 331 kts 262°
2026-05-04 03:19 34.60087 -113.32852 37763 ft 331 kts 262°
2026-05-04 03:19 34.59403 -113.38360 37752 ft 329 kts 262°
2026-05-04 03:20 34.58719 -113.43844 37741 ft 327 kts 262°
2026-05-04 03:20 34.58035 -113.49318 37742 ft 329 kts 261°
2026-05-04 03:21 34.57344 -113.54825 37742 ft 331 kts 261°
2026-05-04 03:21 34.56651 -113.60328 37746 ft 332 kts 261°
2026-05-04 03:22 34.55966 -113.65870 37741 ft 332 kts 262°
2026-05-04 03:22 34.55362 -113.71433 37736 ft 333 kts 262°
2026-05-04 03:23 34.54762 -113.77014 37729 ft 333 kts 262°
2026-05-04 03:23 34.54152 -113.82599 37734 ft 334 kts 262°
2026-05-04 03:24 34.53537 -113.88187 37712 ft 334 kts 262°
2026-05-04 03:24 34.52922 -113.93735 37717 ft 334 kts 262°
2026-05-04 03:25 34.52302 -113.99315 37726 ft 334 kts 262°
2026-05-04 03:25 34.51678 -114.04894 37721 ft 333 kts 262°
2026-05-04 03:26 34.50700 -114.10384 37717 ft 334 kts 256°
2026-05-04 03:26 34.49496 -114.15833 37742 ft 335 kts 256°
2026-05-04 03:27 34.48301 -114.21291 37749 ft 335 kts 256°
2026-05-04 03:27 34.47129 -114.26736 37750 ft 337 kts 257°
2026-05-04 03:28 34.45954 -114.32230 37753 ft 337 kts 257°
2026-05-04 03:28 34.44778 -114.37731 37686 ft 337 kts 257°
2026-05-04 03:29 34.43600 -114.43238 37686 ft 337 kts 256°
2026-05-04 03:29 34.42421 -114.48737 37695 ft 337 kts 256°
2026-05-04 03:30 34.41238 -114.54240 37691 ft 338 kts 256°
2026-05-04 03:30 34.40059 -114.59715 37693 ft 338 kts 256°
2026-05-04 03:31 34.38868 -114.65227 37701 ft 338 kts 256°
2026-05-04 03:31 34.37677 -114.70733 37700 ft 338 kts 256°
2026-05-04 03:32 34.36481 -114.76246 37698 ft 338 kts 256°
2026-05-04 03:32 34.35283 -114.81757 37712 ft 338 kts 256°
2026-05-04 03:33 34.34082 -114.87272 37711 ft 340 kts 256°
2026-05-04 03:33 34.32869 -114.92821 37712 ft 340 kts 256°
2026-05-04 03:34 34.31663 -114.98325 37709 ft 340 kts 256°
2026-05-04 03:34 34.30448 -115.03858 37720 ft 340 kts 256°
2026-05-04 03:35 34.29231 -115.09389 37723 ft 339 kts 256°
2026-05-04 03:35 34.28017 -115.14902 37724 ft 339 kts 256°
2026-05-04 03:36 34.26800 -115.20408 37722 ft 339 kts 256°
2026-05-04 03:36 34.25613 -115.25876 37720 ft 339 kts 256°
2026-05-04 03:37 34.24444 -115.31392 37731 ft 339 kts 256°
2026-05-04 03:37 34.23270 -115.36912 37724 ft 339 kts 256°
2026-05-04 03:38 34.22091 -115.42430 37736 ft 339 kts 256°
2026-05-04 03:38 34.20909 -115.47945 37733 ft 339 kts 256°
2026-05-04 03:39 34.19723 -115.53462 37754 ft 340 kts 256°
2026-05-04 03:39 34.18534 -115.58988 37750 ft 340 kts 256°
2026-05-04 03:40 34.17340 -115.64523 37775 ft 340 kts 255°
2026-05-04 03:40 34.16217 -115.70058 37760 ft 340 kts 259°
2026-05-04 03:41 34.15670 -115.75706 37775 ft 341 kts 262°
2026-05-04 03:41 34.15169 -115.81385 37795 ft 339 kts 262°
2026-05-04 03:42 34.14640 -115.87017 37810 ft 337 kts 261°
2026-05-04 03:42 34.14096 -115.92639 37835 ft 336 kts 261°
2026-05-04 03:43 34.13547 -115.98243 37863 ft 335 kts 261°
2026-05-04 03:43 34.13275 -116.01029 37676 ft 330 kts 261°
2026-05-04 03:43 34.13007 -116.03770 37068 ft 327 kts 261°
2026-05-04 03:43 34.12740 -116.06493 36454 ft 326 kts 261°
2026-05-04 03:44 34.12476 -116.09175 35844 ft 326 kts 261°
2026-05-04 03:44 34.12205 -116.11929 35161 ft 327 kts 261°
2026-05-04 03:44 34.11939 -116.14621 34489 ft 327 kts 261°
2026-05-04 03:44 34.11667 -116.17363 33781 ft 332 kts 261°
2026-05-04 03:45 34.11389 -116.20172 32961 ft 342 kts 261°
2026-05-04 03:45 34.11101 -116.23068 32349 ft 351 kts 261°
2026-05-04 03:45 34.10812 -116.25982 32117 ft 343 kts 261°
2026-05-04 03:45 34.10529 -116.28820 31998 ft 344 kts 261°
2026-05-04 03:46 34.10233 -116.31724 31886 ft 354 kts 261°
2026-05-04 03:46 34.09593 -116.37705 31823 ft 357 kts 260°
2026-05-04 03:46 34.09279 -116.40635 31297 ft 349 kts 260°
2026-05-04 03:47 34.08965 -116.43549 30390 ft 354 kts 260°
2026-05-04 03:47 34.08644 -116.46527 29312 ft 362 kts 260°
2026-05-04 03:47 34.08326 -116.49484 29020 ft 350 kts 260°
2026-05-04 03:47 34.08016 -116.52370 28712 ft 348 kts 260°
2026-05-04 03:48 34.07693 -116.55344 28303 ft 367 kts 260°
2026-05-04 03:48 34.07352 -116.58460 27859 ft 380 kts 261°
2026-05-04 03:48 34.07030 -116.61644 27445 ft 382 kts 262°
2026-05-04 03:48 34.06742 -116.64776 27051 ft 379 kts 262°
2026-05-04 03:49 34.06459 -116.67924 26633 ft 377 kts 262°
2026-05-04 03:49 34.06175 -116.71060 26229 ft 375 kts 262°
2026-05-04 03:49 34.05888 -116.74195 25809 ft 375 kts 262°
2026-05-04 03:49 34.05601 -116.77318 25440 ft 374 kts 262°
2026-05-04 03:50 34.05308 -116.80434 25031 ft 375 kts 262°
2026-05-04 03:50 34.05017 -116.83528 24599 ft 367 kts 262°
2026-05-04 03:50 34.04731 -116.86557 24179 ft 360 kts 262°
2026-05-04 03:50 34.04447 -116.89531 23803 ft 354 kts 261°
2026-05-04 03:51 34.04089 -116.92456 23309 ft 351 kts 259°
2026-05-04 03:51 34.03696 -116.95344 22770 ft 347 kts 259°
2026-05-04 03:51 34.03315 -116.98166 22293 ft 343 kts 259°
2026-05-04 03:51 34.02937 -117.01025 21837 ft 339 kts 259°
2026-05-04 03:52 34.02575 -117.03817 21387 ft 335 kts 259°
2026-05-04 03:52 34.02246 -117.06549 20932 ft 331 kts 260°
2026-05-04 03:52 34.01925 -117.09290 20485 ft 328 kts 260°
2026-05-04 03:52 34.01610 -117.11993 20072 ft 324 kts 259°
2026-05-04 03:53 34.01295 -117.14668 19643 ft 321 kts 259°
2026-05-04 03:53 34.00982 -117.17318 19340 ft 315 kts 259°
2026-05-04 03:53 34.00677 -117.19884 19429 ft 304 kts 259°
2026-05-04 03:53 34.00376 -117.22397 19436 ft 313 kts 259°
2026-05-04 03:54 34.00058 -117.25027 19436 ft 319 kts 259°
2026-05-04 03:54 33.99735 -117.27671 19434 ft 318 kts 259°
2026-05-04 03:54 33.99411 -117.30317 19309 ft 320 kts 259°
2026-05-04 03:54 33.99081 -117.32978 18855 ft 321 kts 259°
2026-05-04 03:55 33.98732 -117.35630 18500 ft 318 kts 258°
2026-05-04 03:55 33.98428 -117.38228 18017 ft 308 kts 260°
2026-05-04 03:55 33.98156 -117.40783 17119 ft 307 kts 260°
2026-05-04 03:55 33.97872 -117.43356 16094 ft 312 kts 259°
2026-05-04 03:56 33.97575 -117.45960 15167 ft 316 kts 259°
2026-05-04 03:56 33.97358 -117.48599 14449 ft 322 kts 268°
2026-05-04 03:56 33.97748 -117.51296 13926 ft 329 kts 281°
2026-05-04 03:56 33.98380 -117.53948 13424 ft 330 kts 282°
2026-05-04 03:57 33.99034 -117.56590 12965 ft 327 kts 282°
2026-05-04 03:57 33.99670 -117.59179 12536 ft 325 kts 282°
2026-05-04 03:57 34.00296 -117.61780 12114 ft 322 kts 282°
2026-05-04 03:57 34.00908 -117.64358 11701 ft 319 kts 282°
2026-05-04 03:58 34.02072 -117.69464 10874 ft 308 kts 276°
2026-05-04 03:58 34.02059 -117.71964 10498 ft 292 kts 260°
2026-05-04 03:58 34.01803 -117.74348 10166 ft 280 kts 261°
2026-05-04 03:59 34.01572 -117.76585 10017 ft 264 kts 260°
2026-05-04 03:59 34.01340 -117.78828 9489 ft 271 kts 261°
2026-05-04 03:59 34.01112 -117.81101 9069 ft 274 kts 261°
2026-05-04 03:59 34.00888 -117.83382 8690 ft 274 kts 261°
2026-05-04 04:00 34.00664 -117.85668 8328 ft 274 kts 262°
2026-05-04 04:00 34.00444 -117.87919 7979 ft 274 kts 262°
2026-05-04 04:00 34.00222 -117.90180 7616 ft 268 kts 262°
2026-05-04 04:00 34.00006 -117.92388 7266 ft 264 kts 262°
2026-05-04 04:01 33.99790 -117.94588 6927 ft 264 kts 262°
2026-05-04 04:01 33.99574 -117.96788 6589 ft 265 kts 262°
2026-05-04 04:01 33.99357 -117.98999 6237 ft 265 kts 262°
2026-05-04 04:01 33.99137 -118.01208 5882 ft 266 kts 262°
2026-05-04 04:02 33.98916 -118.03422 5528 ft 267 kts 263°
2026-05-04 04:02 33.98695 -118.05634 5190 ft 265 kts 263°
2026-05-04 04:02 33.98476 -118.07837 4915 ft 264 kts 262°
2026-05-04 04:02 33.98258 -118.10022 4624 ft 262 kts 262°
2026-05-04 04:03 33.98115 -118.11463 4438 ft 261 kts 262°
2026-05-04 04:03 33.97828 -118.14323 4094 ft 258 kts 262°
2026-05-04 04:03 33.97614 -118.16459 3848 ft 255 kts 262°
2026-05-04 04:03 33.97401 -118.18579 3577 ft 254 kts 262°
2026-05-04 04:04 33.97192 -118.20668 3433 ft 246 kts 262°
2026-05-04 04:04 33.97060 -118.21986 3372 ft 231 kts 262°
2026-05-04 04:04 33.96875 -118.23821 3229 ft 211 kts 262°
2026-05-04 04:04 33.96707 -118.25494 3097 ft 189 kts 262°
2026-05-04 04:05 33.96555 -118.26991 2834 ft 174 kts 262°
2026-05-04 04:05 33.96403 -118.28412 2433 ft 169 kts 262°
2026-05-04 04:05 33.96258 -118.29780 2098 ft 162 kts 263°
2026-05-04 04:05 33.96137 -118.31132 1951 ft 165 kts 263°
2026-05-04 04:06 33.96014 -118.32477 1732 ft 154 kts 263°
2026-05-04 04:06 33.95888 -118.33721 1396 ft 147 kts 262°
2026-05-04 04:06 33.95759 -118.34912 1102 ft 137 kts 262°
2026-05-04 04:06 33.95638 -118.36010 823 ft 132 kts 263°
2026-05-04 04:07 33.95526 -118.37089 678 ft 130 kts 265°
2026-05-04 04:07 33.95432 -118.38167 506 ft 129 kts 261°
2026-05-04 04:07 33.95308 -118.39258 324 ft 133 kts 262°
2026-05-04 04:07 33.95193 -118.40368 153 ft 133 kts 262°
2026-05-04 04:08 33.95087 -118.41390 122 ft 103 kts 263°
2026-05-04 04:08 33.95027 -118.41990 125 ft 41 kts 263°
2026-05-04 04:08 33.95008 -118.42172 125 ft 19 kts 263°
2026-05-04 04:08 33.94989 -118.42337 120 ft 20 kts 262°
2026-05-04 04:09 33.94951 -118.42507 125 ft 23 kts 245°
2026-05-04 04:09 33.94862 -118.42665 125 ft 20 kts 229°
2026-05-04 04:09 33.94853 -118.42678 125 ft 0 kts 227°
2026-05-04 04:10 33.94832 -118.42703 122 ft 8 kts 223°
2026-05-04 04:10 33.94779 -118.42747 124 ft 10 kts 210°
2026-05-04 04:10 33.94716 -118.42776 123 ft 10 kts 192°
2026-05-04 04:10 33.94648 -118.42770 124 ft 11 kts 145°
2026-05-04 04:11 33.94636 -118.42691 125 ft 8 kts 83°
2026-05-04 04:11 33.94643 -118.42626 125 ft 8 kts 82°
2026-05-04 04:11 33.94651 -118.42552 125 ft 11 kts 83°
2026-05-04 04:11 33.94661 -118.42453 121 ft 13 kts 83°
2026-05-04 04:12 33.94673 -118.42329 125 ft 17 kts 82°
2026-05-04 04:12 33.94689 -118.42179 120 ft 18 kts 84°
2026-05-04 04:12 33.94704 -118.42032 122 ft 18 kts 83°
2026-05-04 04:12 33.94719 -118.41888 123 ft 17 kts 83°
2026-05-04 04:13 33.94733 -118.41750 122 ft 16 kts 83°
2026-05-04 04:13 33.94747 -118.41616 121 ft 16 kts 83°
2026-05-04 04:13 33.94762 -118.41488 122 ft 15 kts 79°
2026-05-04 04:13 33.94784 -118.41367 125 ft 14 kts 76°
2026-05-04 04:14 33.94799 -118.41249 123 ft 14 kts 82°
2026-05-04 04:14 33.94811 -118.41133 125 ft 15 kts 83°
2026-05-04 04:14 33.94823 -118.41007 125 ft 15 kts 82°
2026-05-04 04:14 33.94836 -118.40885 125 ft 14 kts 86°
2026-05-04 04:15 33.94846 -118.40769 125 ft 14 kts 81°
2026-05-04 04:15 33.94858 -118.40660 125 ft 10 kts 83°
2026-05-04 04:15 33.94838 -118.40599 120 ft 9 kts 159°
2026-05-04 04:15 33.94787 -118.40572 121 ft 7 kts 114°
2026-05-04 04:16 33.94790 -118.40511 121 ft 7 kts 85°
2026-05-04 04:16 33.94797 -118.40460 125 ft 3 kts 82°
2026-05-04 04:16 33.94797 -118.40458 125 ft 0 kts 82°
2026-05-04 04:16 33.94797 -118.40454 125 ft 1 kts 83°
2026-05-04 04:17 33.94783 -118.40435 122 ft 4 kts 162°
2026-05-04 04:17 33.94752 -118.40435 123 ft 3 kts 181°
2026-05-04 04:17 33.94742 -118.40435 122 ft 0 kts 179°
2026-05-04 04:17 33.94741 -118.40435 122 ft 0 kts 178°